Вернуться в каталог

SL-12 DEB

LostHEO
NORAD 29429·DEBRIS·🇷🇺 Russia

Запущен May 31, 1989 с Baikonur Cosmodrome

Loading…

Ближайшие Пролёты (ближайшие 24 часа)

TLE

УстаревшееSource: Space-Track

Эпоха: Jan 28, 2007, 14:36 UTC

1 29429U 89039CC  07028.60883470  .00058319  00000-0  42072-1 0  9990
2 29429  65.3752 208.3809 5679991  58.0482 345.0426  4.43132034  8645

Отслеживайте SL-12 DEB в реальном времени с AllMySat

Download on the App Store